JM001 MMMX-MMTG

Flight info

Callsign JM001
Flight time 2h 8m
Altitude 9500
Route VFR
Aircraft BE58/L-V/N

Departure

Time 2026-05-04 02:40
Airport Mexico City Benito Juárez International Airport (MMMX)

Arrival

Time 2026-05-04 04:49
Airport Angel Albino Corzo International Airport (MMTG)
Time Latitude Longitude Altitude Speed Heading
2026-05-04 02:09 19.43384 -99.06519 7318 ft 0 kts 137°
2026-05-04 02:32 19.43383 -99.06519 7318 ft 1 kts 118°
2026-05-04 02:32 19.43397 -99.06513 7318 ft 2 kts 345°
2026-05-04 02:32 19.43413 -99.06525 7318 ft 2 kts 319°
2026-05-04 02:32 19.43418 -99.06548 7318 ft 4 kts 257°
2026-05-04 02:33 19.43408 -99.06580 7318 ft 6 kts 243°
2026-05-04 02:33 19.43378 -99.06637 7318 ft 11 kts 238°
2026-05-04 02:33 19.43338 -99.06706 7318 ft 10 kts 243°
2026-05-04 02:33 19.43340 -99.06765 7318 ft 6 kts 300°
2026-05-04 02:34 19.43346 -99.06799 7318 ft 4 kts 260°
2026-05-04 02:34 19.43327 -99.06838 7318 ft 7 kts 234°
2026-05-04 02:34 19.43286 -99.06902 7318 ft 11 kts 237°
2026-05-04 02:34 19.43243 -99.06977 7318 ft 13 kts 239°
2026-05-04 02:35 19.43205 -99.07079 7318 ft 13 kts 280°
2026-05-04 02:35 19.43219 -99.07124 7318 ft 0 kts 299°
2026-05-04 02:35 19.43241 -99.07172 7318 ft 18 kts 288°
2026-05-04 02:35 19.43253 -99.07264 7318 ft 1 kts 283°
2026-05-04 02:36 19.43305 -99.07296 7318 ft 10 kts 301°
2026-05-04 02:36 19.43320 -99.07326 7318 ft 0 kts 296°
2026-05-04 02:37 19.43321 -99.07328 7318 ft 2 kts 296°
2026-05-04 02:37 19.43325 -99.07336 7318 ft 0 kts 296°
2026-05-04 02:37 19.43331 -99.07349 7318 ft 4 kts 294°
2026-05-04 02:37 19.43362 -99.07373 7318 ft 7 kts 35°
2026-05-04 02:38 19.43409 -99.07310 7318 ft 0 kts 53°
2026-05-04 02:38 19.43540 -99.07091 7318 ft 67 kts 60°
2026-05-04 02:38 19.43864 -99.06535 7341 ft 103 kts 51°
2026-05-04 02:39 19.44346 -99.05875 7362 ft 122 kts 59°
2026-05-04 02:39 19.44618 -99.05029 7525 ft 131 kts 88°
2026-05-04 02:39 19.44303 -99.04169 7676 ft 127 kts 134°
2026-05-04 02:39 19.43704 -99.03474 7728 ft 123 kts 129°
2026-05-04 02:40 19.43230 -99.02663 7886 ft 132 kts 115°
2026-05-04 02:40 19.42910 -99.01736 8099 ft 134 kts 117°
2026-05-04 02:40 19.42488 -99.00834 8286 ft 138 kts 110°
2026-05-04 02:40 19.42168 -98.99798 8267 ft 154 kts 105°
2026-05-04 02:41 19.42012 -98.98696 8540 ft 149 kts 92°
2026-05-04 02:41 19.42055 -98.97559 8595 ft 159 kts 83°
2026-05-04 02:41 19.42224 -98.96390 8689 ft 163 kts 79°
2026-05-04 02:41 19.42474 -98.95171 8723 ft 169 kts 77°
2026-05-04 02:42 19.42728 -98.93938 8803 ft 170 kts 81°
2026-05-04 02:42 19.42786 -98.92686 9014 ft 163 kts 94°
2026-05-04 02:42 19.42647 -98.91509 9203 ft 160 kts 100°
2026-05-04 02:42 19.42442 -98.90349 9348 ft 160 kts 99°
2026-05-04 02:43 19.42390 -98.89159 9462 ft 162 kts 86°
2026-05-04 02:43 19.42398 -98.87962 9668 ft 156 kts 93°
2026-05-04 02:43 19.42273 -98.86817 9817 ft 157 kts 100°
2026-05-04 02:43 19.42005 -98.85664 9931 ft 159 kts 112°
2026-05-04 02:44 19.41477 -98.84605 10065 ft 159 kts 122°
2026-05-04 02:44 19.40843 -98.83624 10227 ft 157 kts 126°
2026-05-04 02:44 19.40180 -98.82690 10379 ft 157 kts 132°
2026-05-04 02:44 19.39383 -98.81866 10501 ft 158 kts 137°
2026-05-04 02:45 19.38586 -98.81052 10690 ft 154 kts 135°
2026-05-04 02:45 19.37838 -98.80221 10806 ft 156 kts 130°
2026-05-04 02:45 19.37171 -98.79282 10931 ft 157 kts 123°
2026-05-04 02:45 19.36513 -98.78340 11056 ft 157 kts 127°
2026-05-04 02:46 19.35782 -98.77435 11144 ft 159 kts 132°
2026-05-04 02:46 19.35032 -98.76575 11326 ft 155 kts 132°
2026-05-04 02:46 19.34313 -98.75689 11418 ft 158 kts 127°
2026-05-04 02:46 19.33664 -98.74721 11543 ft 157 kts 121°
2026-05-04 02:47 19.33156 -98.73697 11668 ft 157 kts 113°
2026-05-04 02:47 19.32801 -98.72587 11717 ft 155 kts 105°
2026-05-04 02:47 19.32532 -98.71498 11743 ft 150 kts 104°
2026-05-04 02:47 19.32292 -98.70448 11881 ft 141 kts 103°
2026-05-04 02:48 19.32028 -98.69428 11886 ft 144 kts 108°
2026-05-04 02:48 19.31640 -98.68456 11921 ft 143 kts 115°
2026-05-04 02:48 19.31244 -98.67488 11942 ft 147 kts 109°
2026-05-04 02:48 19.30899 -98.66357 11711 ft 168 kts 110°
2026-05-04 02:49 19.30431 -98.65209 11781 ft 168 kts 114°
2026-05-04 02:49 19.29960 -98.64061 11792 ft 171 kts 112°
2026-05-04 02:49 19.29498 -98.62887 11816 ft 172 kts 113°
2026-05-04 02:49 19.28996 -98.61739 11855 ft 172 kts 116°
2026-05-04 02:50 19.28470 -98.60603 11901 ft 171 kts 115°
2026-05-04 02:50 19.28018 -98.59456 11997 ft 168 kts 109°
2026-05-04 02:50 19.27711 -98.58236 11982 ft 172 kts 105°
2026-05-04 02:50 19.27126 -98.57122 11920 ft 177 kts 139°
2026-05-04 02:51 19.26163 -98.56285 11875 ft 180 kts 139°
2026-05-04 02:51 19.25281 -98.55362 11862 ft 180 kts 130°
2026-05-04 02:51 19.24575 -98.54309 11976 ft 174 kts 123°
2026-05-04 02:51 19.23927 -98.53189 11841 ft 182 kts 120°
2026-05-04 02:52 19.23312 -98.52019 11895 ft 178 kts 118°
2026-05-04 02:52 19.22722 -98.50840 11844 ft 181 kts 117°
2026-05-04 02:52 19.22139 -98.49640 11873 ft 178 kts 117°
2026-05-04 02:52 19.21576 -98.48458 11852 ft 179 kts 116°
2026-05-04 02:53 19.21020 -98.47281 11866 ft 178 kts 116°
2026-05-04 02:53 19.20466 -98.46099 11858 ft 179 kts 116°
2026-05-04 02:53 19.19909 -98.44909 11864 ft 178 kts 116°
2026-05-04 02:53 19.19355 -98.43719 11861 ft 178 kts 116°
2026-05-04 02:54 19.18794 -98.42516 11864 ft 178 kts 116°
2026-05-04 02:54 19.18240 -98.41325 11862 ft 178 kts 116°
2026-05-04 02:54 19.17670 -98.40102 11863 ft 178 kts 116°
2026-05-04 02:54 19.17103 -98.38883 11863 ft 178 kts 116°
2026-05-04 02:55 19.15989 -98.36490 11863 ft 178 kts 116°
2026-05-04 02:55 19.15439 -98.35304 11862 ft 178 kts 116°
2026-05-04 02:55 19.14888 -98.34123 11864 ft 178 kts 116°
2026-05-04 02:56 19.14324 -98.32913 11862 ft 178 kts 116°
2026-05-04 02:56 19.13766 -98.31715 11864 ft 178 kts 116°
2026-05-04 02:56 19.13212 -98.30528 11863 ft 178 kts 116°
2026-05-04 02:56 19.12657 -98.29340 11863 ft 178 kts 116°
2026-05-04 02:57 19.12103 -98.28153 11863 ft 178 kts 116°
2026-05-04 02:57 19.11556 -98.26977 11864 ft 178 kts 116°
2026-05-04 02:57 19.10990 -98.25759 11862 ft 178 kts 116°
2026-05-04 02:57 19.10427 -98.24558 11864 ft 178 kts 116°
2026-05-04 02:58 19.09873 -98.23370 11863 ft 178 kts 116°
2026-05-04 02:58 19.09318 -98.22183 11863 ft 178 kts 116°
2026-05-04 02:58 19.08758 -98.20983 11863 ft 178 kts 116°
2026-05-04 02:58 19.08207 -98.19803 11863 ft 178 kts 116°
2026-05-04 02:59 19.07653 -98.18616 11863 ft 178 kts 116°
2026-05-04 02:59 19.07099 -98.17432 11863 ft 178 kts 116°
2026-05-04 02:59 19.06546 -98.16249 11863 ft 178 kts 116°
2026-05-04 02:59 19.05992 -98.15060 11864 ft 178 kts 116°
2026-05-04 03:00 19.05439 -98.13878 11862 ft 178 kts 116°
2026-05-04 03:00 19.04887 -98.12699 11863 ft 178 kts 116°
2026-05-04 03:00 19.04333 -98.11513 11864 ft 178 kts 116°
2026-05-04 03:00 19.03772 -98.10313 11865 ft 178 kts 116°
2026-05-04 03:01 19.03225 -98.09141 11864 ft 178 kts 116°
2026-05-04 03:01 19.02668 -98.07954 11861 ft 178 kts 116°
2026-05-04 03:01 19.02114 -98.06771 11857 ft 178 kts 116°
2026-05-04 03:01 19.01567 -98.05603 11859 ft 177 kts 116°
2026-05-04 03:02 19.01016 -98.04426 11859 ft 177 kts 116°
2026-05-04 03:02 19.00463 -98.03245 11861 ft 177 kts 116°
2026-05-04 03:02 18.99917 -98.02078 11861 ft 176 kts 116°
2026-05-04 03:02 18.99367 -98.00906 11867 ft 177 kts 116°
2026-05-04 03:03 18.98811 -97.99718 11866 ft 177 kts 116°
2026-05-04 03:03 18.98246 -97.98513 11867 ft 177 kts 116°
2026-05-04 03:03 18.97677 -97.97298 11865 ft 178 kts 116°
2026-05-04 03:03 18.97102 -97.96073 11865 ft 178 kts 116°
2026-05-04 03:04 18.96538 -97.94870 11864 ft 178 kts 116°
2026-05-04 03:04 18.95970 -97.93658 11864 ft 178 kts 116°
2026-05-04 03:04 18.95422 -97.92491 11863 ft 178 kts 116°
2026-05-04 03:04 18.94868 -97.91311 11863 ft 178 kts 116°
2026-05-04 03:05 18.94312 -97.90126 11863 ft 178 kts 116°
2026-05-04 03:05 18.93750 -97.88927 11863 ft 178 kts 116°
2026-05-04 03:05 18.93199 -97.87756 11863 ft 178 kts 116°
2026-05-04 03:05 18.92640 -97.86565 11863 ft 178 kts 116°
2026-05-04 03:06 18.92084 -97.85381 11863 ft 178 kts 116°
2026-05-04 03:06 18.91528 -97.84197 11863 ft 178 kts 116°
2026-05-04 03:06 18.90970 -97.83009 11863 ft 178 kts 116°
2026-05-04 03:06 18.90406 -97.81809 11863 ft 178 kts 116°
2026-05-04 03:07 18.89850 -97.80626 11863 ft 178 kts 116°
2026-05-04 03:07 18.89291 -97.79438 11863 ft 178 kts 116°
2026-05-04 03:07 18.88732 -97.78249 11863 ft 178 kts 116°
2026-05-04 03:07 18.88173 -97.77060 11863 ft 178 kts 116°
2026-05-04 03:08 18.87621 -97.75887 11863 ft 178 kts 116°
2026-05-04 03:08 18.87062 -97.74699 11863 ft 178 kts 116°
2026-05-04 03:08 18.86508 -97.73521 11863 ft 178 kts 116°
2026-05-04 03:08 18.85950 -97.72337 11863 ft 178 kts 116°
2026-05-04 03:09 18.85396 -97.71160 11863 ft 178 kts 116°
2026-05-04 03:09 18.84843 -97.69986 11863 ft 178 kts 116°
2026-05-04 03:09 18.84285 -97.68802 11863 ft 178 kts 116°
2026-05-04 03:09 18.83734 -97.67633 11863 ft 178 kts 116°
2026-05-04 03:10 18.83175 -97.66445 11863 ft 178 kts 116°
2026-05-04 03:10 18.82621 -97.65269 11863 ft 178 kts 116°
2026-05-04 03:10 18.82062 -97.64084 11863 ft 178 kts 116°
2026-05-04 03:10 18.81503 -97.62898 11863 ft 178 kts 116°
2026-05-04 03:11 18.80954 -97.61734 11863 ft 178 kts 116°
2026-05-04 03:11 18.80397 -97.60554 11863 ft 178 kts 116°
2026-05-04 03:11 18.79839 -97.59371 11863 ft 178 kts 116°
2026-05-04 03:11 18.79286 -97.58200 11863 ft 178 kts 116°
2026-05-04 03:12 18.78731 -97.57024 11863 ft 178 kts 116°
2026-05-04 03:12 18.78174 -97.55844 11863 ft 178 kts 116°
2026-05-04 03:12 18.77625 -97.54680 11863 ft 178 kts 116°
2026-05-04 03:12 18.77066 -97.53498 11863 ft 178 kts 116°
2026-05-04 03:13 18.76516 -97.52333 11863 ft 178 kts 116°
2026-05-04 03:13 18.75956 -97.51147 11863 ft 178 kts 116°
2026-05-04 03:13 18.75403 -97.49976 11863 ft 178 kts 116°
2026-05-04 03:13 18.74851 -97.48809 11863 ft 178 kts 116°
2026-05-04 03:14 18.74293 -97.47629 11863 ft 178 kts 116°
2026-05-04 03:14 18.73744 -97.46466 11863 ft 178 kts 116°
2026-05-04 03:14 18.73187 -97.45290 11863 ft 178 kts 116°
2026-05-04 03:14 18.72627 -97.44104 11863 ft 178 kts 116°
2026-05-04 03:15 18.72072 -97.42933 11863 ft 178 kts 116°
2026-05-04 03:15 18.71514 -97.41753 11863 ft 178 kts 116°
2026-05-04 03:15 18.70960 -97.40582 11863 ft 178 kts 116°
2026-05-04 03:15 18.70401 -97.39401 11863 ft 178 kts 116°
2026-05-04 03:16 18.69844 -97.38224 11863 ft 178 kts 116°
2026-05-04 03:16 18.69281 -97.37036 11863 ft 178 kts 116°
2026-05-04 03:16 18.68726 -97.35864 11863 ft 178 kts 116°
2026-05-04 03:16 18.68169 -97.34689 11863 ft 178 kts 116°
2026-05-04 03:17 18.67608 -97.33504 11863 ft 178 kts 116°
2026-05-04 03:17 18.67052 -97.32332 11863 ft 178 kts 116°
2026-05-04 03:17 18.66494 -97.31154 11863 ft 178 kts 116°
2026-05-04 03:17 18.65934 -97.29972 11863 ft 178 kts 116°
2026-05-04 03:18 18.65381 -97.28806 11863 ft 178 kts 116°
2026-05-04 03:18 18.64823 -97.27631 11863 ft 178 kts 116°
2026-05-04 03:18 18.64257 -97.26437 11863 ft 178 kts 116°
2026-05-04 03:18 18.63699 -97.25261 11863 ft 178 kts 116°
2026-05-04 03:19 18.63138 -97.24078 11863 ft 178 kts 116°
2026-05-04 03:19 18.62578 -97.22900 11863 ft 178 kts 116°
2026-05-04 03:19 18.62025 -97.21735 11863 ft 178 kts 116°
2026-05-04 03:19 18.61460 -97.20544 11863 ft 178 kts 116°
2026-05-04 03:20 18.60907 -97.19380 11863 ft 178 kts 116°
2026-05-04 03:20 18.60342 -97.18192 11863 ft 178 kts 116°
2026-05-04 03:20 18.59782 -97.17010 11869 ft 178 kts 116°
2026-05-04 03:20 18.59229 -97.15838 11885 ft 177 kts 116°
2026-05-04 03:21 18.58670 -97.14665 11825 ft 181 kts 117°
2026-05-04 03:21 18.58104 -97.13477 11878 ft 177 kts 116°
2026-05-04 03:21 18.57541 -97.12296 11846 ft 179 kts 116°
2026-05-04 03:21 18.56982 -97.11121 11872 ft 178 kts 116°
2026-05-04 03:22 18.56413 -97.09926 11855 ft 179 kts 116°
2026-05-04 03:22 18.55854 -97.08751 11868 ft 178 kts 116°
2026-05-04 03:22 18.55303 -97.07591 11859 ft 179 kts 116°
2026-05-04 03:22 18.54741 -97.06407 11866 ft 178 kts 116°
2026-05-04 03:23 18.54186 -97.05240 11862 ft 178 kts 117°
2026-05-04 03:23 18.53626 -97.04067 11865 ft 178 kts 116°
2026-05-04 03:23 18.53068 -97.02896 11862 ft 178 kts 116°
2026-05-04 03:23 18.52505 -97.01715 11864 ft 178 kts 116°
2026-05-04 03:24 18.51949 -97.00550 11863 ft 178 kts 116°
2026-05-04 03:24 18.51389 -96.99375 11863 ft 178 kts 116°
2026-05-04 03:24 18.50831 -96.98203 11863 ft 178 kts 116°
2026-05-04 03:24 18.50272 -96.97032 11863 ft 178 kts 116°
2026-05-04 03:25 18.49708 -96.95850 11863 ft 178 kts 116°
2026-05-04 03:25 18.49148 -96.94675 11863 ft 178 kts 116°
2026-05-04 03:25 18.48589 -96.93503 11863 ft 178 kts 116°
2026-05-04 03:25 18.48032 -96.92335 11863 ft 178 kts 116°
2026-05-04 03:26 18.47472 -96.91162 11863 ft 178 kts 116°
2026-05-04 03:26 18.46911 -96.89985 11863 ft 178 kts 116°
2026-05-04 03:26 18.46352 -96.88814 11863 ft 178 kts 116°
2026-05-04 03:26 18.45791 -96.87642 11863 ft 178 kts 116°
2026-05-04 03:27 18.45230 -96.86467 11863 ft 178 kts 116°
2026-05-04 03:27 18.44663 -96.85281 11863 ft 178 kts 116°
2026-05-04 03:27 18.44107 -96.84115 11863 ft 178 kts 116°
2026-05-04 03:27 18.43541 -96.82931 11863 ft 178 kts 116°
2026-05-04 03:28 18.42985 -96.81767 11863 ft 178 kts 116°
2026-05-04 03:28 18.42419 -96.80584 11863 ft 178 kts 116°
2026-05-04 03:28 18.41854 -96.79401 11863 ft 178 kts 116°
2026-05-04 03:28 18.41286 -96.78213 11863 ft 178 kts 116°
2026-05-04 03:29 18.40714 -96.77020 11863 ft 178 kts 116°
2026-05-04 03:29 18.40150 -96.75839 11863 ft 178 kts 116°
2026-05-04 03:29 18.39588 -96.74665 11863 ft 178 kts 116°
2026-05-04 03:29 18.39017 -96.73473 11863 ft 178 kts 116°
2026-05-04 03:30 18.38450 -96.72287 11863 ft 178 kts 116°
2026-05-04 03:30 18.37887 -96.71111 11863 ft 178 kts 116°
2026-05-04 03:30 18.37329 -96.69946 11863 ft 178 kts 116°
2026-05-04 03:30 18.36766 -96.68771 11863 ft 178 kts 116°
2026-05-04 03:31 18.36201 -96.67592 11863 ft 178 kts 116°
2026-05-04 03:31 18.35633 -96.66406 11863 ft 178 kts 116°
2026-05-04 03:31 18.35065 -96.65219 11863 ft 178 kts 116°
2026-05-04 03:31 18.34510 -96.64059 11863 ft 178 kts 117°
2026-05-04 03:32 18.33940 -96.62873 11863 ft 178 kts 116°
2026-05-04 03:32 18.33377 -96.61699 11863 ft 179 kts 116°
2026-05-04 03:32 18.32811 -96.60518 11863 ft 179 kts 116°
2026-05-04 03:32 18.32248 -96.59345 11863 ft 179 kts 116°
2026-05-04 03:33 18.31684 -96.58171 11863 ft 179 kts 116°
2026-05-04 03:33 18.31117 -96.56989 11863 ft 179 kts 116°
2026-05-04 03:33 18.30552 -96.55812 11863 ft 179 kts 116°
2026-05-04 03:33 18.29983 -96.54626 11863 ft 179 kts 116°
2026-05-04 03:34 18.29425 -96.53464 11863 ft 179 kts 116°
2026-05-04 03:34 18.28854 -96.52275 11863 ft 179 kts 116°
2026-05-04 03:34 18.28290 -96.51100 11863 ft 179 kts 116°
2026-05-04 03:34 18.27720 -96.49915 11863 ft 179 kts 116°
2026-05-04 03:35 18.27153 -96.48735 11863 ft 179 kts 116°
2026-05-04 03:35 18.26581 -96.47545 11863 ft 179 kts 116°
2026-05-04 03:35 18.26016 -96.46371 11863 ft 179 kts 116°
2026-05-04 03:35 18.25450 -96.45192 11863 ft 179 kts 116°
2026-05-04 03:36 18.24875 -96.43996 11863 ft 179 kts 116°
2026-05-04 03:36 18.24298 -96.42797 11863 ft 179 kts 116°
2026-05-04 03:36 18.23732 -96.41621 11863 ft 179 kts 116°
2026-05-04 03:36 18.23163 -96.40437 11863 ft 179 kts 116°
2026-05-04 03:37 18.22598 -96.39263 11863 ft 179 kts 116°
2026-05-04 03:37 18.22034 -96.38090 11863 ft 179 kts 117°
2026-05-04 03:37 18.21470 -96.36919 11863 ft 179 kts 116°
2026-05-04 03:37 18.20901 -96.35739 11863 ft 179 kts 116°
2026-05-04 03:38 18.20332 -96.34559 11863 ft 179 kts 117°
2026-05-04 03:38 18.19763 -96.33377 11863 ft 179 kts 117°
2026-05-04 03:38 18.19197 -96.32201 11863 ft 179 kts 117°
2026-05-04 03:38 18.18636 -96.31037 11863 ft 179 kts 117°
2026-05-04 03:39 18.18066 -96.29855 11863 ft 179 kts 117°
2026-05-04 03:39 18.17506 -96.28694 11863 ft 179 kts 117°
2026-05-04 03:39 18.16943 -96.27527 11863 ft 179 kts 117°
2026-05-04 03:39 18.16375 -96.26348 11863 ft 179 kts 117°
2026-05-04 03:40 18.15811 -96.25180 11863 ft 179 kts 117°
2026-05-04 03:40 18.15250 -96.24016 11863 ft 179 kts 117°
2026-05-04 03:40 18.14684 -96.22843 11863 ft 179 kts 117°
2026-05-04 03:40 18.14116 -96.21667 11863 ft 179 kts 117°
2026-05-04 03:41 18.13552 -96.20499 11863 ft 179 kts 117°
2026-05-04 03:41 18.12989 -96.19333 11863 ft 179 kts 117°
2026-05-04 03:41 18.12420 -96.18153 11863 ft 179 kts 117°
2026-05-04 03:41 18.11857 -96.16988 11863 ft 179 kts 117°
2026-05-04 03:42 18.11294 -96.15823 11863 ft 179 kts 117°
2026-05-04 03:42 18.10723 -96.14642 11863 ft 179 kts 117°
2026-05-04 03:42 18.10158 -96.13474 11863 ft 179 kts 117°
2026-05-04 03:42 18.09596 -96.12309 11863 ft 179 kts 117°
2026-05-04 03:43 18.09026 -96.11132 11863 ft 179 kts 117°
2026-05-04 03:43 18.08465 -96.09971 11863 ft 179 kts 117°
2026-05-04 03:43 18.07894 -96.08791 11863 ft 179 kts 117°
2026-05-04 03:43 18.07332 -96.07628 11863 ft 179 kts 117°
2026-05-04 03:44 18.06763 -96.06454 11863 ft 179 kts 117°
2026-05-04 03:44 18.06194 -96.05277 11863 ft 179 kts 117°
2026-05-04 03:44 18.05630 -96.04112 11863 ft 179 kts 117°
2026-05-04 03:44 18.05060 -96.02934 11863 ft 179 kts 117°
2026-05-04 03:45 18.04496 -96.01769 11863 ft 179 kts 117°
2026-05-04 03:45 18.03929 -96.00597 11863 ft 179 kts 117°
2026-05-04 03:45 18.03359 -95.99423 11863 ft 179 kts 117°
2026-05-04 03:45 18.02793 -95.98255 11863 ft 179 kts 117°
2026-05-04 03:46 18.02223 -95.97077 11863 ft 179 kts 117°
2026-05-04 03:46 18.01660 -95.95916 11863 ft 179 kts 117°
2026-05-04 03:46 18.01093 -95.94747 11863 ft 179 kts 117°
2026-05-04 03:46 18.00522 -95.93569 11863 ft 179 kts 117°
2026-05-04 03:47 17.99956 -95.92401 11863 ft 179 kts 117°
2026-05-04 03:47 17.99391 -95.91235 11863 ft 179 kts 117°
2026-05-04 03:47 17.98815 -95.90050 11863 ft 179 kts 117°
2026-05-04 03:47 17.98254 -95.88894 11863 ft 179 kts 117°
2026-05-04 03:48 17.97689 -95.87727 11863 ft 179 kts 117°
2026-05-04 03:48 17.97115 -95.86547 11863 ft 179 kts 117°
2026-05-04 03:48 17.96546 -95.85374 11863 ft 179 kts 117°
2026-05-04 03:48 17.95982 -95.84212 11863 ft 179 kts 117°
2026-05-04 03:49 17.95410 -95.83036 11863 ft 179 kts 117°
2026-05-04 03:49 17.94847 -95.81876 11863 ft 179 kts 117°
2026-05-04 03:49 17.94281 -95.80710 11863 ft 179 kts 117°
2026-05-04 03:49 17.93708 -95.79531 11863 ft 179 kts 117°
2026-05-04 03:50 17.93145 -95.78372 11863 ft 179 kts 117°
2026-05-04 03:50 17.92569 -95.77187 11863 ft 179 kts 117°
2026-05-04 03:50 17.92005 -95.76028 11863 ft 179 kts 117°
2026-05-04 03:50 17.91433 -95.74853 11863 ft 179 kts 117°
2026-05-04 03:51 17.90868 -95.73692 11863 ft 179 kts 117°
2026-05-04 03:51 17.90300 -95.72523 11863 ft 179 kts 117°
2026-05-04 03:51 17.89728 -95.71347 11863 ft 179 kts 117°
2026-05-04 03:51 17.89161 -95.70183 11863 ft 179 kts 117°
2026-05-04 03:52 17.88588 -95.69006 11863 ft 179 kts 117°
2026-05-04 03:52 17.88023 -95.67845 11863 ft 179 kts 117°
2026-05-04 03:52 17.87451 -95.66671 11863 ft 179 kts 117°
2026-05-04 03:52 17.86882 -95.65502 11863 ft 179 kts 117°
2026-05-04 03:53 17.86318 -95.64344 11863 ft 179 kts 117°
2026-05-04 03:53 17.85744 -95.63168 11863 ft 179 kts 117°
2026-05-04 03:53 17.85179 -95.62006 11863 ft 179 kts 117°
2026-05-04 03:53 17.84612 -95.60844 11863 ft 179 kts 117°
2026-05-04 03:54 17.84038 -95.59666 11863 ft 179 kts 117°
2026-05-04 03:54 17.83469 -95.58498 11863 ft 179 kts 117°
2026-05-04 03:54 17.82900 -95.57332 11863 ft 179 kts 117°
2026-05-04 03:54 17.82328 -95.56158 11863 ft 179 kts 117°
2026-05-04 03:55 17.81766 -95.55006 11863 ft 179 kts 117°
2026-05-04 03:55 17.81195 -95.53836 11863 ft 179 kts 117°
2026-05-04 03:55 17.80628 -95.52675 11863 ft 179 kts 117°
2026-05-04 03:55 17.80053 -95.51498 11863 ft 179 kts 117°
2026-05-04 03:56 17.79487 -95.50339 11863 ft 179 kts 117°
2026-05-04 03:56 17.78916 -95.49168 11863 ft 179 kts 117°
2026-05-04 03:56 17.78344 -95.47998 11863 ft 179 kts 117°
2026-05-04 03:56 17.77775 -95.46833 11863 ft 179 kts 117°
2026-05-04 03:57 17.77210 -95.45675 11863 ft 179 kts 117°
2026-05-04 03:57 17.76637 -95.44502 11863 ft 179 kts 117°
2026-05-04 03:57 17.76070 -95.43344 11863 ft 179 kts 117°
2026-05-04 03:57 17.75501 -95.42178 11863 ft 179 kts 117°
2026-05-04 03:58 17.74346 -95.39816 11863 ft 179 kts 117°
2026-05-04 03:58 17.73781 -95.38662 11863 ft 179 kts 117°
2026-05-04 03:58 17.73198 -95.37470 11863 ft 179 kts 116°
2026-05-04 03:59 17.72628 -95.36298 11863 ft 179 kts 117°
2026-05-04 03:59 17.72054 -95.35129 11863 ft 179 kts 117°
2026-05-04 03:59 17.71481 -95.33959 11863 ft 179 kts 117°
2026-05-04 03:59 17.70909 -95.32793 11863 ft 179 kts 117°
2026-05-04 04:00 17.70336 -95.31623 11863 ft 179 kts 117°
2026-05-04 04:00 17.69765 -95.30456 11863 ft 179 kts 117°
2026-05-04 04:00 17.69191 -95.29285 11863 ft 179 kts 117°
2026-05-04 04:00 17.68619 -95.28117 11863 ft 179 kts 117°
2026-05-04 04:01 17.68047 -95.26951 11863 ft 179 kts 117°
2026-05-04 04:01 17.67472 -95.25777 11863 ft 179 kts 117°
2026-05-04 04:01 17.66900 -95.24611 11863 ft 179 kts 117°
2026-05-04 04:01 17.66327 -95.23441 11863 ft 179 kts 117°
2026-05-04 04:02 17.65746 -95.22257 11863 ft 179 kts 117°
2026-05-04 04:02 17.65179 -95.21102 11863 ft 179 kts 117°
2026-05-04 04:02 17.64604 -95.19930 11863 ft 179 kts 117°
2026-05-04 04:02 17.64032 -95.18764 11863 ft 179 kts 117°
2026-05-04 04:03 17.63459 -95.17595 11863 ft 179 kts 117°
2026-05-04 04:03 17.62885 -95.16426 11863 ft 179 kts 117°
2026-05-04 04:03 17.62311 -95.15256 11863 ft 179 kts 117°
2026-05-04 04:03 17.61737 -95.14088 11863 ft 179 kts 117°
2026-05-04 04:04 17.61165 -95.12923 11863 ft 179 kts 117°
2026-05-04 04:04 17.60591 -95.11755 11863 ft 179 kts 117°
2026-05-04 04:04 17.60019 -95.10590 11863 ft 179 kts 117°
2026-05-04 04:04 17.59448 -95.09429 11863 ft 179 kts 117°
2026-05-04 04:05 17.58874 -95.08260 11863 ft 179 kts 117°
2026-05-04 04:05 17.58297 -95.07086 11863 ft 179 kts 117°
2026-05-04 04:05 17.57724 -95.05919 11865 ft 179 kts 117°
2026-05-04 04:05 17.57147 -95.04747 11861 ft 179 kts 117°
2026-05-04 04:06 17.56567 -95.03568 11864 ft 179 kts 117°
2026-05-04 04:06 17.55987 -95.02389 11862 ft 179 kts 117°
2026-05-04 04:06 17.55420 -95.01237 11864 ft 179 kts 117°
2026-05-04 04:06 17.54839 -95.00056 11863 ft 179 kts 117°
2026-05-04 04:07 17.54266 -94.98891 11863 ft 179 kts 117°
2026-05-04 04:07 17.53684 -94.97709 11863 ft 179 kts 117°
2026-05-04 04:07 17.53108 -94.96541 11863 ft 179 kts 117°
2026-05-04 04:07 17.52536 -94.95377 11863 ft 179 kts 117°
2026-05-04 04:08 17.51963 -94.94215 11863 ft 179 kts 117°
2026-05-04 04:08 17.51378 -94.93027 11863 ft 179 kts 117°
2026-05-04 04:08 17.50804 -94.91863 11863 ft 179 kts 117°
2026-05-04 04:08 17.50223 -94.90684 11863 ft 179 kts 117°
2026-05-04 04:09 17.49648 -94.89516 11863 ft 179 kts 117°
2026-05-04 04:09 17.49067 -94.88339 11863 ft 179 kts 117°
2026-05-04 04:09 17.48494 -94.87176 11863 ft 179 kts 117°
2026-05-04 04:09 17.47915 -94.86003 11863 ft 179 kts 117°
2026-05-04 04:10 17.47339 -94.84834 11863 ft 179 kts 117°
2026-05-04 04:10 17.46757 -94.83655 11863 ft 179 kts 117°
2026-05-04 04:10 17.46182 -94.82489 11863 ft 179 kts 117°
2026-05-04 04:10 17.45606 -94.81323 11863 ft 179 kts 117°
2026-05-04 04:11 17.45032 -94.80160 11863 ft 179 kts 117°
2026-05-04 04:11 17.44456 -94.78994 11863 ft 179 kts 117°
2026-05-04 04:11 17.43879 -94.77824 11863 ft 179 kts 117°
2026-05-04 04:11 17.43309 -94.76671 11863 ft 179 kts 117°
2026-05-04 04:12 17.42729 -94.75497 11863 ft 179 kts 117°
2026-05-04 04:12 17.42156 -94.74338 11863 ft 179 kts 117°
2026-05-04 04:12 17.41577 -94.73167 11863 ft 179 kts 117°
2026-05-04 04:12 17.40993 -94.71984 11863 ft 179 kts 117°
2026-05-04 04:13 17.40407 -94.70798 11863 ft 179 kts 117°
2026-05-04 04:13 17.39823 -94.69618 11863 ft 179 kts 117°
2026-05-04 04:13 17.39234 -94.68426 11863 ft 179 kts 117°
2026-05-04 04:13 17.38652 -94.67249 11863 ft 179 kts 117°
2026-05-04 04:14 17.38067 -94.66066 11863 ft 179 kts 117°
2026-05-04 04:14 17.37483 -94.64887 11863 ft 179 kts 117°
2026-05-04 04:14 17.36902 -94.63712 11863 ft 179 kts 117°
2026-05-04 04:14 17.36315 -94.62528 11863 ft 179 kts 117°
2026-05-04 04:15 17.35731 -94.61347 11863 ft 179 kts 117°
2026-05-04 04:15 17.35153 -94.60181 11863 ft 179 kts 117°
2026-05-04 04:15 17.34564 -94.58991 11863 ft 179 kts 117°
2026-05-04 04:15 17.33983 -94.57816 11863 ft 179 kts 117°
2026-05-04 04:16 17.33392 -94.56625 11863 ft 179 kts 117°
2026-05-04 04:16 17.32808 -94.55445 11863 ft 179 kts 117°
2026-05-04 04:16 17.32224 -94.54268 11863 ft 179 kts 117°
2026-05-04 04:16 17.31642 -94.53094 11863 ft 179 kts 117°
2026-05-04 04:17 17.31056 -94.51910 11863 ft 179 kts 117°
2026-05-04 04:17 17.30473 -94.50736 11863 ft 179 kts 117°
2026-05-04 04:17 17.29893 -94.49565 11863 ft 179 kts 117°
2026-05-04 04:17 17.29316 -94.48402 11863 ft 179 kts 117°
2026-05-04 04:18 17.28736 -94.47234 11863 ft 179 kts 117°
2026-05-04 04:18 17.28154 -94.46061 11863 ft 179 kts 117°
2026-05-04 04:18 17.27568 -94.44880 11863 ft 179 kts 117°
2026-05-04 04:18 17.26991 -94.43718 11863 ft 179 kts 117°
2026-05-04 04:19 17.26404 -94.42535 11863 ft 179 kts 117°
2026-05-04 04:19 17.25822 -94.41363 11863 ft 179 kts 117°
2026-05-04 04:19 17.25235 -94.40181 11863 ft 179 kts 117°
2026-05-04 04:19 17.24654 -94.39012 11863 ft 179 kts 117°
2026-05-04 04:20 17.24071 -94.37839 11863 ft 179 kts 117°
2026-05-04 04:20 17.23488 -94.36666 11863 ft 179 kts 117°
2026-05-04 04:20 17.22909 -94.35500 11863 ft 179 kts 117°
2026-05-04 04:20 17.22332 -94.34341 11863 ft 179 kts 117°
2026-05-04 04:21 17.21752 -94.33174 11863 ft 179 kts 117°
2026-05-04 04:21 17.21174 -94.32011 11863 ft 179 kts 117°
2026-05-04 04:21 17.20588 -94.30833 11863 ft 179 kts 117°
2026-05-04 04:21 17.20002 -94.29656 11863 ft 179 kts 117°
2026-05-04 04:22 17.19420 -94.28486 11863 ft 179 kts 117°
2026-05-04 04:22 17.18836 -94.27312 11863 ft 179 kts 117°
2026-05-04 04:22 17.18248 -94.26130 11863 ft 179 kts 117°
2026-05-04 04:22 17.17666 -94.24963 11863 ft 179 kts 117°
2026-05-04 04:23 17.17078 -94.23781 11863 ft 179 kts 117°
2026-05-04 04:23 17.16492 -94.22603 11863 ft 179 kts 117°
2026-05-04 04:23 17.15900 -94.21416 11863 ft 179 kts 117°
2026-05-04 04:23 17.15309 -94.20229 11863 ft 179 kts 117°
2026-05-04 04:24 17.14722 -94.19051 11863 ft 179 kts 117°
2026-05-04 04:24 17.14133 -94.17869 11863 ft 179 kts 117°
2026-05-04 04:24 17.13539 -94.16678 11863 ft 179 kts 117°
2026-05-04 04:24 17.12958 -94.15512 11863 ft 179 kts 117°
2026-05-04 04:25 17.12373 -94.14339 11863 ft 179 kts 117°
2026-05-04 04:25 17.11788 -94.13166 11863 ft 179 kts 117°
2026-05-04 04:25 17.11198 -94.11984 11863 ft 179 kts 117°
2026-05-04 04:25 17.10613 -94.10812 11863 ft 179 kts 117°
2026-05-04 04:26 17.10033 -94.09649 11863 ft 179 kts 117°
2026-05-04 04:26 17.09452 -94.08484 11863 ft 179 kts 117°
2026-05-04 04:26 17.08862 -94.07303 11863 ft 179 kts 117°
2026-05-04 04:26 17.08272 -94.06120 11863 ft 179 kts 117°
2026-05-04 04:27 17.07680 -94.04935 11863 ft 179 kts 117°
2026-05-04 04:27 17.07090 -94.03754 11863 ft 179 kts 117°
2026-05-04 04:27 17.06506 -94.02584 11863 ft 179 kts 117°
2026-05-04 04:27 17.05909 -94.01390 11863 ft 179 kts 117°
2026-05-04 04:28 17.05324 -94.00220 11863 ft 179 kts 117°
2026-05-04 04:28 17.04725 -93.99021 11863 ft 179 kts 117°
2026-05-04 04:28 17.04139 -93.97849 11863 ft 179 kts 117°
2026-05-04 04:28 17.03547 -93.96664 11863 ft 179 kts 117°
2026-05-04 04:29 17.02963 -93.95498 11863 ft 179 kts 117°
2026-05-04 04:29 17.02367 -93.94305 11863 ft 179 kts 117°
2026-05-04 04:29 17.01825 -93.93158 12106 ft 165 kts 113°
2026-05-04 04:29 17.01392 -93.92034 12152 ft 169 kts 113°
2026-05-04 04:30 17.00768 -93.90834 11851 ft 187 kts 120°
2026-05-04 04:30 17.00137 -93.89682 11965 ft 179 kts 119°
2026-05-04 04:30 16.99509 -93.88500 11752 ft 189 kts 118°
2026-05-04 04:30 16.98873 -93.87273 11672 ft 190 kts 118°
2026-05-04 04:31 16.98234 -93.86021 11516 ft 193 kts 118°
2026-05-04 04:31 16.97598 -93.84765 11382 ft 195 kts 117°
2026-05-04 04:31 16.96964 -93.83507 11227 ft 196 kts 117°
2026-05-04 04:31 16.96304 -93.82194 11042 ft 199 kts 117°
2026-05-04 04:32 16.95651 -93.80894 10863 ft 200 kts 117°
2026-05-04 04:32 16.94997 -93.79590 10684 ft 200 kts 117°
2026-05-04 04:32 16.94333 -93.78267 10493 ft 201 kts 117°
2026-05-04 04:32 16.93676 -93.76956 10309 ft 202 kts 117°
2026-05-04 04:33 16.93023 -93.75655 10114 ft 202 kts 117°
2026-05-04 04:33 16.92364 -93.74339 9918 ft 203 kts 117°
2026-05-04 04:33 16.91695 -93.73007 9732 ft 203 kts 117°
2026-05-04 04:33 16.91030 -93.71677 9531 ft 203 kts 117°
2026-05-04 04:34 16.90370 -93.70366 9336 ft 203 kts 117°
2026-05-04 04:34 16.89709 -93.69051 9147 ft 203 kts 117°
2026-05-04 04:34 16.89050 -93.67738 8953 ft 204 kts 117°
2026-05-04 04:34 16.88390 -93.66426 8759 ft 203 kts 117°
2026-05-04 04:35 16.87737 -93.65125 8559 ft 202 kts 117°
2026-05-04 04:35 16.87076 -93.63811 8370 ft 201 kts 117°
2026-05-04 04:35 16.86424 -93.62513 8182 ft 201 kts 117°
2026-05-04 04:35 16.85774 -93.61218 7998 ft 201 kts 117°
2026-05-04 04:36 16.85119 -93.59915 7815 ft 200 kts 117°
2026-05-04 04:36 16.84471 -93.58629 7630 ft 201 kts 117°
2026-05-04 04:36 16.83819 -93.57332 7445 ft 201 kts 117°
2026-05-04 04:36 16.83174 -93.56050 7263 ft 201 kts 117°
2026-05-04 04:37 16.81221 -93.52168 6726 ft 200 kts 117°
2026-05-04 04:37 16.80563 -93.50863 6544 ft 201 kts 117°
2026-05-04 04:38 16.79918 -93.49577 6372 ft 200 kts 117°
2026-05-04 04:38 16.79269 -93.48289 6197 ft 201 kts 117°
2026-05-04 04:38 16.78610 -93.46980 6021 ft 201 kts 117°
2026-05-04 04:38 16.77953 -93.45675 5850 ft 200 kts 117°
2026-05-04 04:39 16.77295 -93.44373 5674 ft 201 kts 117°
2026-05-04 04:39 16.76653 -93.43100 5509 ft 201 kts 117°
2026-05-04 04:39 16.75995 -93.41795 5337 ft 201 kts 117°
2026-05-04 04:39 16.75334 -93.40483 5169 ft 200 kts 117°
2026-05-04 04:40 16.74678 -93.39183 5003 ft 200 kts 117°
2026-05-04 04:40 16.74009 -93.37856 4832 ft 200 kts 117°
2026-05-04 04:40 16.73355 -93.36561 4669 ft 201 kts 117°
2026-05-04 04:40 16.72681 -93.35223 4498 ft 201 kts 117°
2026-05-04 04:41 16.72020 -93.33914 4337 ft 201 kts 118°
2026-05-04 04:41 16.71362 -93.32612 4176 ft 200 kts 118°
2026-05-04 04:41 16.70702 -93.31303 4042 ft 199 kts 118°
2026-05-04 04:41 16.70063 -93.30039 3962 ft 197 kts 118°
2026-05-04 04:42 16.69418 -93.28759 3901 ft 194 kts 117°
2026-05-04 04:42 16.68778 -93.27493 3848 ft 193 kts 118°
2026-05-04 04:42 16.68154 -93.26258 3892 ft 188 kts 117°
2026-05-04 04:42 16.67562 -93.25063 4045 ft 180 kts 116°
2026-05-04 04:43 16.67155 -93.23846 4167 ft 178 kts 102°
2026-05-04 04:43 16.66893 -93.22555 4156 ft 181 kts 104°
2026-05-04 04:43 16.66527 -93.21282 4221 ft 181 kts 108°
2026-05-04 04:43 16.66205 -93.19986 4269 ft 182 kts 103°
2026-05-04 04:44 16.65915 -93.18678 4240 ft 185 kts 103°
2026-05-04 04:44 16.65608 -93.17347 4245 ft 185 kts 104°
2026-05-04 04:44 16.65336 -93.16022 4325 ft 182 kts 103°
2026-05-04 04:44 16.64977 -93.14733 4334 ft 184 kts 109°
2026-05-04 04:45 16.64503 -93.13451 4293 ft 187 kts 113°
2026-05-04 04:45 16.63926 -93.12196 4260 ft 187 kts 117°
2026-05-04 04:45 16.63287 -93.11005 4253 ft 188 kts 119°
2026-05-04 04:47 16.60208 -93.05074 2045 ft 131 kts 149°
2026-05-04 04:47 16.59443 -93.04643 2093 ft 114 kts 152°
2026-05-04 04:47 16.58754 -93.04237 1994 ft 109 kts 149°
2026-05-04 04:47 16.58120 -93.03856 1780 ft 105 kts 148°
2026-05-04 04:48 16.57512 -93.03474 1609 ft 98 kts 148°
2026-05-04 04:49 16.56139 -93.02519 1512 ft 28 kts 124°
2026-05-04 04:49 16.56042 -93.02350 1508 ft 24 kts 116°
2026-05-04 04:49 16.56061 -93.02187 1504 ft 22 kts 61°
2026-05-04 04:49 16.56122 -93.02076 1500 ft 9 kts 48°
2026-05-04 04:50 16.56151 -93.02039 1498 ft 0 kts 58°